TimeCST,TemperatureF,Dew PointF,Humidity,Sea Level PressureIn,VisibilityMPH,Wind Direction,Wind SpeedMPH,Gust SpeedMPH,PrecipitationIn,Events,Conditions,WindDirDegrees,DateUTC
12:13 AM,3.2,1.4,92,30.09,10.0,Calm,Calm,-,N/A,,Clear,0,2012-12-14 06:13:00
12:34 AM,3.2,1.4,92,30.08,10.0,Calm,Calm,-,N/A,,Clear,0,2012-12-14 06:34:00
12:53 AM,3.2,1.4,92,30.08,10.0,Calm,Calm,-,N/A,,Clear,0,2012-12-14 06:53:00
1:14 AM,3.2,1.4,92,30.08,10.0,Calm,Calm,-,N/A,,Clear,0,2012-12-14 07:14:00
1:34 AM,3.2,1.4,92,30.07,10.0,Calm,Calm,-,N/A,,Clear,0,2012-12-14 07:34:00
1:53 AM,1.4,-0.4,92,30.07,7.0,Calm,Calm,-,N/A,,Clear,0,2012-12-14 07:53:00
2:14 AM,3.2,1.4,92,30.07,10.0,Calm,Calm,-,N/A,,Clear,0,2012-12-14 08:14:00
2:34 AM,5.0,3.2,92,30.07,7.0,ESE,3.5,-,N/A,,Clear,120,2012-12-14 08:34:00
2:53 AM,8.6,6.8,92,30.07,7.0,ESE,3.5,-,N/A,,Clear,120,2012-12-14 08:53:00
3:14 AM,8.6,6.8,92,30.06,7.0,SE,3.5,-,N/A,,Clear,130,2012-12-14 09:14:00
3:34 AM,8.6,6.8,92,30.06,7.0,SE,3.5,-,N/A,,Clear,130,2012-12-14 09:34:00
3:53 AM,6.8,5.0,92,30.05,10.0,SE,3.5,-,N/A,,Clear,130,2012-12-14 09:53:00
4:13 AM,8.6,6.8,92,30.05,10.0,Calm,Calm,-,N/A,,Clear,0,2012-12-14 10:13:00
4:53 AM,6.8,3.2,85,30.05,7.0,Calm,Calm,-,N/A,,Clear,0,2012-12-14 10:53:00
5:13 AM,6.8,3.2,85,30.04,10.0,Calm,Calm,-,N/A,,Clear,0,2012-12-14 11:13:00
5:34 AM,3.2,1.4,92,30.04,10.0,Calm,Calm,-,N/A,,Clear,0,2012-12-14 11:34:00
5:53 AM,3.2,1.4,92,30.03,10.0,SE,3.5,-,N/A,,Clear,130,2012-12-14 11:53:00
6:13 AM,3.2,1.4,92,30.04,10.0,Calm,Calm,-,N/A,,Clear,0,2012-12-14 12:13:00
6:34 AM,3.2,1.4,92,30.04,10.0,Calm,Calm,-,N/A,,Clear,0,2012-12-14 12:34:00
6:53 AM,8.6,6.8,92,30.03,10.0,East,3.5,-,N/A,,Clear,100,2012-12-14 12:53:00
7:13 AM,8.6,6.8,92,30.02,10.0,Calm,Calm,-,N/A,,Clear,0,2012-12-14 13:13:00
7:34 AM,6.8,6.8,100,30.01,10.0,Calm,Calm,-,N/A,,Clear,0,2012-12-14 13:34:00
7:53 AM,6.8,3.2,85,30.02,7.0,Calm,Calm,-,N/A,,Clear,0,2012-12-14 13:53:00
8:13 AM,8.6,8.6,100,30.02,7.0,SE,3.5,-,N/A,,Clear,130,2012-12-14 14:13:00
8:34 AM,10.4,10.4,100,30.01,7.0,Calm,Calm,-,N/A,,Clear,0,2012-12-14 14:34:00
8:53 AM,12.2,10.4,92,30.02,7.0,Calm,Calm,-,N/A,,Clear,0,2012-12-14 14:53:00
9:14 AM,14.0,12.2,93,30.02,7.0,Calm,Calm,-,N/A,,Clear,0,2012-12-14 15:14:00
9:33 AM,15.8,14.0,93,30.01,7.0,ESE,3.5,-,N/A,,Clear,120,2012-12-14 15:33:00
9:53 AM,15.8,15.8,100,30.01,5.0,Calm,Calm,-,N/A,,Clear,0,2012-12-14 15:53:00
10:14 AM,17.6,17.6,100,30.01,7.0,ESE,3.5,-,N/A,,Clear,110,2012-12-14 16:14:00
10:33 AM,17.6,17.6,100,30.01,7.0,Calm,Calm,-,N/A,,Clear,0,2012-12-14 16:33:00
10:53 AM,19.4,19.4,100,30.01,5.0,Calm,Calm,-,N/A,,Clear,0,2012-12-14 16:53:00
11:13 AM,19.4,19.4,100,29.99,5.0,East,3.5,-,N/A,,Clear,90,2012-12-14 17:13:00
11:33 AM,21.2,21.2,100,29.98,5.0,East,4.6,-,N/A,,Clear,90,2012-12-14 17:33:00
11:54 AM,21.2,21.2,100,29.97,7.0,East,5.8,-,N/A,,Clear,100,2012-12-14 17:54:00
12:13 PM,21.2,21.2,100,29.97,7.0,ESE,4.6,-,N/A,,Clear,110,2012-12-14 18:13:00
12:33 PM,23.0,21.2,93,29.96,7.0,SE,6.9,-,N/A,,Clear,130,2012-12-14 18:33:00
12:54 PM,24.8,21.2,86,29.95,7.0,SE,5.8,-,N/A,,Clear,130,2012-12-14 18:54:00
1:13 PM,26.6,21.2,80,29.94,10.0,ESE,5.8,-,N/A,,Clear,110,2012-12-14 19:13:00
1:33 PM,28.4,21.2,74,29.92,10.0,SE,6.9,-,N/A,,Clear,130,2012-12-14 19:33:00
1:54 PM,28.4,21.2,74,29.91,10.0,ESE,6.9,-,N/A,,Clear,120,2012-12-14 19:54:00
2:13 PM,30.2,21.2,69,29.90,10.0,SE,8.1,-,N/A,,Clear,130,2012-12-14 20:13:00
2:33 PM,30.2,21.2,69,29.89,10.0,ESE,6.9,-,N/A,,Clear,120,2012-12-14 20:33:00
2:54 PM,30.2,21.2,69,29.89,10.0,SE,8.1,-,N/A,,Clear,140,2012-12-14 20:54:00
3:13 PM,28.4,21.2,74,29.88,10.0,ESE,5.8,-,N/A,,Clear,120,2012-12-14 21:13:00
3:33 PM,30.2,21.2,69,29.88,10.0,ESE,8.1,-,N/A,,Clear,110,2012-12-14 21:33:00
4:13 PM,28.4,21.2,74,29.87,10.0,ESE,5.8,-,N/A,,Clear,110,2012-12-14 22:13:00
4:34 PM,26.6,21.2,80,29.86,10.0,East,6.9,-,N/A,,Clear,100,2012-12-14 22:34:00
4:54 PM,26.6,21.2,80,29.86,10.0,ESE,5.8,-,N/A,,Clear,120,2012-12-14 22:54:00
5:13 PM,24.8,19.4,80,29.85,10.0,East,6.9,-,N/A,,Clear,90,2012-12-14 23:13:00
5:34 PM,24.8,19.4,80,29.85,10.0,East,3.5,-,N/A,,Clear,90,2012-12-14 23:34:00
5:54 PM,23.0,19.4,86,29.85,10.0,East,3.5,-,N/A,,Clear,90,2012-12-14 23:54:00
6:13 PM,23.0,19.4,86,29.86,10.0,East,3.5,-,N/A,,Clear,90,2012-12-15 00:13:00
6:34 PM,23.0,19.4,86,29.85,10.0,East,4.6,-,N/A,,Clear,100,2012-12-15 00:34:00
6:53 PM,23.0,21.2,93,29.85,7.0,ESE,5.8,-,N/A,,Clear,110,2012-12-15 00:53:00
7:14 PM,23.0,21.2,93,29.84,7.0,ESE,6.9,-,N/A,,Clear,110,2012-12-15 01:14:00
7:34 PM,23.0,21.2,93,29.83,7.0,ESE,8.1,-,N/A,,Clear,110,2012-12-15 01:34:00
7:53 PM,24.8,21.2,86,29.83,7.0,ESE,8.1,-,N/A,,Clear,120,2012-12-15 01:53:00
8:14 PM,24.8,21.2,86,29.82,7.0,ESE,5.8,-,N/A,,Clear,110,2012-12-15 02:14:00
8:34 PM,24.8,21.2,86,29.82,10.0,ESE,4.6,-,N/A,,Clear,120,2012-12-15 02:34:00
8:53 PM,24.8,21.2,86,29.81,10.0,ESE,5.8,-,N/A,,Clear,110,2012-12-15 02:53:00
9:14 PM,24.8,21.2,86,29.81,10.0,ESE,6.9,-,N/A,,Clear,110,2012-12-15 03:14:00
9:33 PM,24.8,21.2,86,29.80,10.0,East,5.8,-,N/A,,Clear,100,2012-12-15 03:33:00
9:53 PM,24.8,21.2,86,29.79,10.0,ESE,8.1,-,N/A,,Clear,110,2012-12-15 03:53:00
10:13 PM,24.8,21.2,86,29.78,10.0,ESE,5.8,-,N/A,,Clear,110,2012-12-15 04:13:00
10:33 PM,26.6,21.2,80,29.78,10.0,ESE,6.9,-,N/A,,Clear,120,2012-12-15 04:33:00
10:54 PM,24.8,21.2,86,29.78,10.0,ESE,5.8,-,N/A,,Clear,120,2012-12-15 04:54:00
11:13 PM,24.8,21.2,86,29.76,10.0,ESE,3.5,-,N/A,,Clear,110,2012-12-15 05:13:00
11:33 PM,24.8,21.2,86,29.76,10.0,ESE,4.6,-,N/A,,Clear,110,2012-12-15 05:33:00
11:54 PM,24.8,21.2,86,29.76,10.0,East,4.6,-,N/A,,Clear,100,2012-12-15 05:54:00